Tracking 20942 objects as of 10-Jul-2020
HD Live streaming from Space Station
objects crossing your sky now

COSMOS 841

Track COSMOS 841 now!
10-day predictions
COSMOS 841 is classified as:


NORAD ID: 9022
Int'l Code: 1976-069A
Perigee: 769.9 km
Apogee: 789.3 km
Inclination: 74.0 °
Period: 100.3 minutes
Semi major axis: 7150 km
RCS: 2.1872 m2 (large)
Launch date: July 15, 1976
Source: Commonwealth of Independent States (former USSR) (CIS)
Launch site: PLESETSK MISSILE AND SPACE COMPLEX (PKMTR)
aabbcc
Your satellite tracking list
Your tracking list is empty




NASA's NSSDC Master Catalog

Two Line Element Set (TLE):
1  9022U 76069A   20191.80588769 +.00000020 +00000-0 +15871-4 0  9993
2  9022 074.0449 321.0016 0013533 220.2778 139.7373 14.35790684301104
Source of the keplerian elements: AFSPC